Regional Weather Roundup
Issued by NWS Cleveland, OH

Home | Current Version | Previous Version | Graphics & Text | Print | Product List | Glossary On
Versions: 1 2 3 4 5 6 7 8 9 10 11 12 13 14 15 16 17 18 19 20 21 22 23 24 25 26 27 28 29 30 31 32 33 34 35 36 37 38 39 40 41 42 43 44 45 46 47 48 49 50
000
ASUS41 KCLE 230210
RWRCLE
OHIO REGIONAL WEATHER ROUNDUP
NATIONAL WEATHER SERVICE WILMINGTON, OH
1000 PM EDT MON MAY 22 2017

NOTE: "FAIR" INDICATES FEW OR NO CLOUDS BELOW 12,000 FEET WITH NO
SIGNIFICANT WEATHER AND/OR OBSTRUCTIONS TO VISIBILITY.

OHZ001>008-015>018-024>027-034-035-043-044-230300-
   NORTHWEST OHIO

CITY           SKY/WX    TMP DP  RH WIND       PRES   REMARKS
DEFIANCE       FAIR      61  45  55 CALM      29.99F
FINDLAY        FAIR      60  49  66 S6        30.00S
TOLEDO EXPRESS FAIR      56  50  80 S3        29.99R
TOLEDO EXEC    FAIR      62  49  62 S3        30.00R
LIMA           FAIR      58  50  75 SE7       30.01S
$$

OHZ009>014-019>023-028>033-038-089-230300-
   NORTHEAST OHIO

CITY           SKY/WX    TMP DP  RH WIND       PRES   REMARKS
CLE-HOPKINS    FAIR      63  47  55 S7        30.03R
CLE-LAKEFRONT  FAIR      62  47  57 SW3       30.01R
CUY CO. ARPT   NOT AVBL
LORAIN-ELYRIA  FAIR      58  45  62 SW6       30.03R
ASHTABULA      FAIR      54  48  80 CALM      30.02R
AKRON-CANTON   FAIR      57  47  69 S6        30.04R
WOOSTER        FAIR      55  49  80 CALM      30.05R
MANSFIELD      FAIR      58  48  69 CALM      30.03R
YOUNGSTOWN     FAIR      55  46  71 S6        30.05R
$$

OHZ042-051>053-060>062-070>072-077>081-230300-
  SOUTHWEST OHIO

CITY           SKY/WX    TMP DP  RH WIND       PRES   REMARKS
CINC-COVINGTON CLOUDY    57  46  66 SE3       30.02S
CINC-LUNKEN    FAIR      56  52  86 CALM      30.03S
HAMILTON       FAIR      57  52  83 CALM      30.03R
DAYTON         FAIR      63  44  50 SE7       30.02S
WRIGHT-PAT AFB FAIR      62  47  58 SE3       30.01F
DAYTON GENERAL FAIR      58  48  69 S6        30.02S
WILMINGTON     FAIR      57  49  74 SE3       30.03S
$$

OHZ036-037-039>041-045>050-054>059-063>069-073>076-082>088-230300-
  CENTRAL AND SOUTHEAST OHIO

CITY           SKY/WX    TMP DP  RH WIND       PRES   REMARKS
COLUMBUS       FAIR      62  46  55 SE3       30.02F
OSU AIRPORT    FAIR      61  48  62 SE3       30.02F
BOLTON FIELD   FAIR      58  50  73 S3        30.03F
RICKENBACK AFB FAIR      57  49  74 SE5       30.02F
NEWARK         FAIR      56  49  77 CALM      30.03S
MARION         FAIR      59  47  64 CALM      30.03S
LANCASTER      FAIR      55  49  80 CALM      30.04F
ZANESVILLE     FAIR      56  49  77 SE3       30.05R
NEW PHILLY     FAIR      56  51  84 CALM      30.05R
$$




USA.gov is the U.S. government's official web portal to all federal, state and local government web resources and services.